Friday Harbor, WA
on Tuesday, December 18, 2012

Tuesday
Previous Day Next Day
Daily Summary
 ActualAverageRecord
Temperature
Mean Temperature °F °F  
Max Temperature 41°F 43°F 51°F (2003)
Min Temperature 33°F 34°F 23°F (2008)
Degree Days
Heating Degree Days 28    
Moisture
Dew Point 33°F   
Average Humidity 86    
Maximum Humidity 96    
Minimum Humidity 73    
Precipitation
Precipitation 0.14 in in in ()
Wind
Wind Speed 6 mph   
Max Wind Speed 21 mph   
Max Gust Speed 33 mph   
Visibility 9 miles   
Events Rain , Snow   
Averages and records for this station are not official NWS values.
Key: T is trace of precipitation, MM is missing value
Source: NWS Daily Summary
Seasonal Weather Averages
Time(PST)TemperatureDew PointHumidity Pressure Visibility Wind DirectionWind SpeedGust SpeedPrecipitationEvents Conditions
12:21 AM 35.6°F 32.0°F 87% 29.85 in 10.0 miles Calm Calm - N/A   Overcast
12:53 AM 36.0°F 32.0°F 86% 29.86 in 9.0 miles SW 3.5 mph - 0.00 in Rain Light Rain
1:06 AM 35.6°F 32.0°F 87% 29.85 in 10.0 miles SW 3.5 mph - 0.00 in Rain Light Rain
1:53 AM 36.0°F 33.1°F 89% 29.86 in 10.0 miles Variable 3.5 mph - 0.00 in Rain Light Rain
2:07 AM 33.8°F 32.0°F 93% 29.86 in 1.8 miles South 5.8 mph - 0.03 in Snow Light Snow
2:22 AM 33.8°F 32.0°F 93% 29.86 in 3.0 miles ESE 6.9 mph - 0.06 in Snow Light Snow
2:39 AM 35.6°F 33.8°F 93% 29.86 in 7.0 miles NE 4.6 mph - 0.06 in Rain Light Rain
2:53 AM 35.1°F 33.1°F 92% 29.86 in 10.0 miles Variable 3.5 mph - 0.07 in Rain Light Rain
3:17 AM 35.6°F 33.8°F 93% 29.86 in 10.0 miles South 4.6 mph - 0.00 in Rain Light Rain
3:53 AM 37.0°F 33.1°F 86% 29.86 in 10.0 miles SE 10.4 mph - 0.00 in   Mostly Cloudy
4:03 AM 37.4°F 33.8°F 87% 29.85 in 10.0 miles SE 9.2 mph - N/A   Overcast
4:28 AM 37.4°F 33.8°F 87% 29.85 in 10.0 miles ESE 10.4 mph - N/A   Overcast
4:51 AM 37.4°F 33.8°F 87% 29.85 in 10.0 miles SE 11.5 mph - N/A   Overcast
4:53 AM 37.0°F 33.1°F 86% 29.86 in 10.0 miles SSE 9.2 mph - N/A   Overcast
5:24 AM 35.6°F 33.8°F 93% 29.85 in 10.0 miles South 8.1 mph - 0.00 in   Overcast
5:53 AM 36.0°F 32.0°F 86% 29.86 in 10.0 miles SSE 5.8 mph - 0.00 in   Mostly Cloudy
6:53 AM 36.0°F 33.1°F 89% 29.87 in 10.0 miles South 3.5 mph - N/A   Mostly Cloudy
7:18 AM 37.4°F 33.8°F 87% 29.87 in 10.0 miles South 6.9 mph - N/A   Overcast
7:53 AM 37.0°F 34.0°F 89% 29.88 in 8.0 miles West 5.8 mph - 0.00 in Rain Light Rain
8:20 AM 35.6°F 33.8°F 93% 29.88 in 10.0 miles Calm Calm - 0.01 in Rain Light Rain
8:53 AM 33.1°F 32.0°F 96% 29.90 in 10.0 miles Calm Calm - 0.01 in   Scattered Clouds
9:53 AM 37.0°F 34.0°F 89% 29.91 in 10.0 miles South 3.5 mph - N/A   Mostly Cloudy
10:30 AM 37.4°F 33.8°F 87% 29.91 in 6.0 miles SW 4.6 mph - 0.00 in Rain Light Rain
10:53 AM 37.0°F 34.0°F 89% 29.92 in 10.0 miles SW 8.1 mph - 0.00 in Rain Light Rain
11:04 AM 37.4°F 33.8°F 87% 29.91 in 10.0 miles SSW 4.6 mph - 0.00 in   Overcast
11:53 AM 39.9°F 35.1°F 83% 29.92 in 10.0 miles Calm Calm - 0.00 in   Overcast
12:32 PM 41.0°F 33.8°F 76% 29.92 in 10.0 miles South 8.1 mph - N/A   Overcast
12:53 PM 39.9°F 32.0°F 73% 29.92 in 10.0 miles South 6.9 mph - N/A   Mostly Cloudy
1:21 PM 39.2°F 33.8°F 81% 29.92 in 10.0 miles South 4.6 mph - N/A   Mostly Cloudy
1:41 PM 39.2°F 33.8°F 81% 29.92 in 10.0 miles SSE 8.1 mph - N/A   Mostly Cloudy
1:48 PM 39.2°F 33.8°F 81% 29.92 in 10.0 miles SSE 6.9 mph - N/A   Overcast
1:53 PM 39.9°F 33.1°F 77% 29.92 in 10.0 miles SSE 8.1 mph - N/A   Overcast
2:34 PM 39.2°F 33.8°F 81% 29.92 in 10.0 miles SSE 10.4 mph - N/A   Overcast
2:53 PM 39.9°F 33.1°F 77% 29.93 in 10.0 miles SSE 9.2 mph - N/A   Overcast
3:53 PM 39.0°F 32.0°F 76% 29.93 in 10.0 miles SSE 6.9 mph - N/A   Overcast
4:24 PM 37.4°F 32.0°F 81% 29.94 in 7.0 miles Calm Calm - 0.06 in Rain Light Rain
4:53 PM 35.1°F 32.0°F 89% 29.94 in 10.0 miles Calm Calm - 0.06 in   Overcast
5:16 PM 33.8°F 32.0°F 93% 29.94 in 10.0 miles Calm Calm - N/A   Mostly Cloudy
5:53 PM 37.0°F 33.1°F 86% 29.94 in 10.0 miles SSW 4.6 mph - 0.00 in   Overcast
6:53 PM 37.0°F 33.1°F 86% 29.95 in 10.0 miles South 8.1 mph - 0.00 in Rain Light Rain
7:24 PM 37.4°F 35.6°F 93% 29.94 in 10.0 miles SE 10.4 mph 18.4 mph 0.00 in   Mostly Cloudy
7:53 PM 37.9°F 34.0°F 86% 29.94 in 10.0 miles ESE 12.7 mph 19.6 mph 0.00 in   Overcast
8:53 PM 37.0°F 33.1°F 86% 29.94 in 10.0 miles SE 12.7 mph 20.7 mph N/A   Overcast
9:48 PM 37.4°F 33.8°F 87% 29.92 in 10.0 miles ESE 15.0 mph 20.7 mph N/A   Overcast
9:53 PM 37.9°F 33.1°F 83% 29.92 in 10.0 miles ESE 17.3 mph 23.0 mph N/A   Overcast
10:53 PM 37.9°F 33.1°F 83% 29.90 in 10.0 miles SE 20.7 mph 26.5 mph N/A   Overcast
11:53 PM 39.0°F 34.0°F 82% 29.88 in 10.0 miles SE 20.7 mph 33.4 mph N/A   Overcast
Moon Phase
Dec. 18 Dec. 20 Dec. 28 Jan. 04 Jan. 11
Sunrise:08:00 AM (PST) Moon Rise:11:15 AM (PST)12/18
Sunset:04:18 PM (PST) Moon Set:11:19 PM (PST)12/18

Copyright © 2014 The Weather Underground, Inc.